Meteo orario Alibunar

Oggi, 28 Ottobre, Mercoledi

Tempo Temperatura Precipitazioni Vento Pressione Umidità
00:00 +13°C° 0 mm 3 m/s 752 mm Hg 75%
01:00 +13°C° 0 mm 4 m/s 753 mm Hg 75%
02:00 +13°C° 0 mm 3 m/s 753 mm Hg 77%
03:00 +13°C° 0 mm 3 m/s 753 mm Hg 78%
04:00 +12°C° 0 mm 3 m/s 753 mm Hg 79%
05:00 +13°C° 0 mm 2 m/s 753 mm Hg 79%
06:00 +13°C° 0 mm 2 m/s 753 mm Hg 80%
07:00 +13°C° 0 mm 2 m/s 754 mm Hg 80%
08:00 +15°C° 0 mm 2 m/s 754 mm Hg 73%
09:00 +16°C° 0 mm 2 m/s 754 mm Hg 66%
10:00 +18°C° 0 mm 2 m/s 754 mm Hg 60%
11:00 +20°C° 0 mm 1 m/s 754 mm Hg 57%
12:00 +20°C° 0 mm 1 m/s 754 mm Hg 54%
13:00 +21°C° 0 mm 1 m/s 753 mm Hg 51%
14:00 +20°C° 0 mm 1 m/s 753 mm Hg 54%
15:00 +20°C° 0 mm 1 m/s 754 mm Hg 57%
16:00 +19°C° 0 mm 1 m/s 754 mm Hg 60%
17:00 +18°C° 0 mm 1 m/s 754 mm Hg 63%
18:00 +16°C° 0 mm 1 m/s 754 mm Hg 66%
19:00 +15°C° 0 mm 1 m/s 754 mm Hg 70%
20:00 +15°C° 0 mm 1 m/s 754 mm Hg 72%
21:00 +15°C° 0 mm 1 m/s 754 mm Hg 74%
22:00 +13°C° 0 mm 0 m/s 755 mm Hg 76%
23:00 +13°C° 0 mm 0 m/s 755 mm Hg 77%

Domani, 29 Ottobre, Giovedi

Tempo Temperatura Precipitazioni Vento Pressione Umidità
00:00 +12°C° 0 mm 0 m/s 755 mm Hg 79%
01:00 +13°C° 0 mm 1 m/s 755 mm Hg 81%
02:00 +13°C° 0 mm 1 m/s 755 mm Hg 82%
03:00 +12°C° 0 mm 1 m/s 755 mm Hg 84%
04:00 +12°C° 0 mm 1 m/s 754 mm Hg 86%
05:00 +12°C° 0 mm 1 m/s 755 mm Hg 87%
06:00 +12°C° 0 mm 1 m/s 755 mm Hg 88%
07:00 +12°C° 0 mm 1 m/s 755 mm Hg 89%
08:00 +13°C° 0 mm 1 m/s 755 mm Hg 82%
09:00 +15°C° 0 mm 1 m/s 755 mm Hg 74%
10:00 +18°C° 0 mm 1 m/s 755 mm Hg 67%
11:00 +18°C° 0 mm 1 m/s 755 mm Hg 64%
12:00 +19°C° 0 mm 1 m/s 754 mm Hg 60%
13:00 +20°C° 0 mm 1 m/s 754 mm Hg 57%
14:00 +18°C° 0 mm 2 m/s 754 mm Hg 60%
15:00 +18°C° 0 mm 2 m/s 754 mm Hg 62%
16:00 +17°C° 0 mm 2 m/s 755 mm Hg 64%
17:00 +17°C° 0.1 mm 2 m/s 755 mm Hg 67%
18:00 +16°C° 0.1 mm 2 m/s 755 mm Hg 69%
19:00 +16°C° 0.1 mm 3 m/s 756 mm Hg 71%
20:00 +14°C° 0.2 mm 4 m/s 756 mm Hg 74%
21:00 +13°C° 0.2 mm 5 m/s 757 mm Hg 76%
22:00 +11°C° 0.2 mm 6 m/s 758 mm Hg 79%
23:00 +12°C° 0.7 mm 5 m/s 758 mm Hg 80%

Dopodomani, 30 Ottobre, Venerdi

Tempo Temperatura Precipitazioni Vento Pressione Umidità
00:00 +12°C° 0.7 mm 3 m/s 758 mm Hg 82%
01:00 +12°C° 0.7 mm 2 m/s 758 mm Hg 83%
02:00 +11°C° 0 mm 3 m/s 759 mm Hg 83%
03:00 +11°C° 0 mm 4 m/s 759 mm Hg 83%
04:00 +10°C° 0 mm 4 m/s 759 mm Hg 82%
05:00 +10°C° 0 mm 4 m/s 760 mm Hg 82%
06:00 +10°C° 0 mm 3 m/s 760 mm Hg 82%
07:00 +10°C° 0 mm 3 m/s 760 mm Hg 82%
08:00 +11°C° 0 mm 4 m/s 760 mm Hg 73%
09:00 +11°C° 0 mm 4 m/s 760 mm Hg 64%
10:00 +12°C° 0 mm 4 m/s 760 mm Hg 55%
11:00 +13°C° 0 mm 4 m/s 760 mm Hg 51%
12:00 +13°C° 0 mm 4 m/s 760 mm Hg 48%
13:00 +14°C° 0 mm 4 m/s 759 mm Hg 44%
14:00 +14°C° 0 mm 3 m/s 759 mm Hg 46%
15:00 +13°C° 0 mm 3 m/s 759 mm Hg 49%
16:00 +14°C° 0 mm 2 m/s 759 mm Hg 51%
17:00 +13°C° 0 mm 1 m/s 759 mm Hg 54%
18:00 +13°C° 0 mm 1 m/s 759 mm Hg 56%
19:00 +11°C° 0 mm 0 m/s 759 mm Hg 59%
20:00 +12°C° 0 mm 1 m/s 759 mm Hg 60%
21:00 +12°C° 0 mm 1 m/s 759 mm Hg 61%
22:00 +13°C° 0 mm 1 m/s 759 mm Hg 62%
23:00 +13°C° 0.1 mm 2 m/s 759 mm Hg 66%

31 Ottobre, Sabato

Tempo Temperatura Precipitazioni Vento Pressione Umidità
00:00 +12°C° 0.1 mm 2 m/s 759 mm Hg 70%
01:00 +11°C° 0.1 mm 3 m/s 758 mm Hg 75%
02:00 +12°C° 0.2 mm 3 m/s 758 mm Hg 75%
03:00 +12°C° 0.2 mm 3 m/s 758 mm Hg 76%
04:00 +12°C° 0.2 mm 4 m/s 758 mm Hg 77%
05:00 +12°C° 0.3 mm 4 m/s 757 mm Hg 77%
06:00 +12°C° 0.3 mm 4 m/s 757 mm Hg 77%
07:00 +12°C° 0.3 mm 5 m/s 757 mm Hg 77%
08:00 +13°C° 0 mm 5 m/s 757 mm Hg 77%
09:00 +13°C° 0 mm 5 m/s 757 mm Hg 77%
10:00 +14°C° 0 mm 6 m/s 757 mm Hg 77%
11:00 +14°C° 0.1 mm 5 m/s 757 mm Hg 77%
12:00 +14°C° 0.1 mm 5 m/s 757 mm Hg 78%
13:00 +14°C° 0.1 mm 5 m/s 757 mm Hg 78%
14:00 +14°C° 0 mm 5 m/s 757 mm Hg 73%
15:00 +13°C° 0 mm 4 m/s 757 mm Hg 67%
16:00 +13°C° 0 mm 4 m/s 757 mm Hg 62%
17:00 +12°C° 0 mm 4 m/s 758 mm Hg 65%
18:00 +11°C° 0 mm 3 m/s 758 mm Hg 69%
19:00 +10°C° 0 mm 3 m/s 759 mm Hg 73%
20:00 +9°C° 0 mm 3 m/s 759 mm Hg 75%
21:00 +8°C° 0 mm 3 m/s 759 mm Hg 77%
22:00 +8°C° 0 mm 3 m/s 760 mm Hg 78%
23:00 +7°C° 0 mm 2 m/s 760 mm Hg 80%

1 Novenbre, Domenica

Tempo Temperatura Precipitazioni Vento Pressione Umidità
00:00 +7°C° 0 mm 2 m/s 760 mm Hg 83%
01:00 +6°C° 0 mm 2 m/s 760 mm Hg 85%
02:00 +6°C° 0 mm 2 m/s 760 mm Hg 86%
03:00 +6°C° 0 mm 2 m/s 760 mm Hg 88%
04:00 +7°C° 0 mm 1 m/s 760 mm Hg 90%
05:00 +6°C° 0 mm 1 m/s 761 mm Hg 89%
06:00 +6°C° 0 mm 1 m/s 761 mm Hg 89%
07:00 +6°C° 0 mm 1 m/s 761 mm Hg 89%
08:00 +8°C° 0 mm 1 m/s 761 mm Hg 82%
09:00 +9°C° 0 mm 1 m/s 761 mm Hg 74%
10:00 +11°C° 0 mm 1 m/s 761 mm Hg 66%
11:00 +12°C° 0 mm 1 m/s 761 mm Hg 62%
12:00 +13°C° 0 mm 1 m/s 760 mm Hg 57%
13:00 +14°C° 0 mm 1 m/s 760 mm Hg 52%
14:00 +13°C° 0 mm 1 m/s 760 mm Hg 54%
15:00 +13°C° 0 mm 1 m/s 760 mm Hg 56%
16:00 +12°C° 0 mm 1 m/s 760 mm Hg 59%
17:00 +12°C° 0 mm 1 m/s 760 mm Hg 62%
18:00 +11°C° 0 mm 1 m/s 760 mm Hg 65%
19:00 +9°C° 0 mm 0 m/s 760 mm Hg 68%
20:00 +9°C° 0 mm 0 m/s 760 mm Hg 69%
21:00 +8°C° 0 mm 0 m/s 761 mm Hg 71%
22:00 +8°C° 0 mm 0 m/s 761 mm Hg 72%
23:00 +8°C° 0 mm 0 m/s 761 mm Hg 74%

2 Novenbre, Lunedi

Tempo Temperatura Precipitazioni Vento Pressione Umidità
00:00 +7°C° 0 mm 0 m/s 760 mm Hg 75%
01:00 +7°C° 0 mm 0 m/s 760 mm Hg 76%
02:00 +7°C° 0 mm 0 m/s 760 mm Hg 78%
03:00 +6°C° 0 mm 0 m/s 760 mm Hg 80%
04:00 +7°C° 0 mm 1 m/s 760 mm Hg 81%
05:00 +7°C° 0 mm 1 m/s 760 mm Hg 81%
06:00 +7°C° 0 mm 1 m/s 760 mm Hg 82%
07:00 +7°C° 0 mm 1 m/s 760 mm Hg 82%
08:00 +9°C° 0 mm 1 m/s 760 mm Hg 75%
09:00 +10°C° 0 mm 1 m/s 760 mm Hg 68%
10:00 +12°C° 0 mm 1 m/s 760 mm Hg 60%
11:00 +13°C° 0 mm 1 m/s 760 mm Hg 57%
12:00 +14°C° 0 mm 1 m/s 760 mm Hg 54%
13:00 +15°C° 0 mm 1 m/s 759 mm Hg 50%
14:00 +14°C° 0 mm 1 m/s 759 mm Hg 53%
15:00 +14°C° 0 mm 1 m/s 759 mm Hg 56%
16:00 +13°C° 0 mm 1 m/s 759 mm Hg 58%
17:00 +12°C° 0 mm 1 m/s 759 mm Hg 62%
18:00 +11°C° 0 mm 1 m/s 759 mm Hg 65%
19:00 +11°C° 0 mm 1 m/s 759 mm Hg 68%
20:00 +10°C° 0 mm 1 m/s 759 mm Hg 70%
21:00 +10°C° 0 mm 1 m/s 759 mm Hg 72%
22:00 +8°C° 0 mm 0 m/s 759 mm Hg 73%
23:00 +8°C° 0 mm 0 m/s 759 mm Hg 74%
Mostrare altro

Abbiamo bisogno del tuo consenso

Meteoprog e i nostri fornitori di servizi possono memorizzare e accedere a dati personali come cookie, identificatori di dispositivi o altre tecnologie simili sul tuo dispositivo e possono elaborare tali dati per personalizzare i contenuti e gli annunci, nonché fornire funzionalità dei social media e analizzarne il traffico.

  • Archiviare e/o accedere alle informazioni sul tuo dispositivo

    Cookie, identificatori di dispositivi o altre informazioni possono essere memorizzati o resi accessibili sul tuo dispositivo per le finalità sopra indicate.

  • Annunci e contenuti personalizzati, misurazione di annunci e contenuti, approfondimenti sul pubblico e sviluppo di prodotti

    Gli annunci e i contenuti possono essere personalizzati in base a un profilo. È possibile aggiungere più dati per personalizzare meglio annunci e contenuti. È possibile misurare il rendimento degli annunci e dei contenuti. È possibile ricavare informazioni sul pubblico che ha visto gli annunci e i contenuti. Tali dati possono essere utilizzati per sviluppare o migliorare l'esperienza, i sistemi e il software dell'utente.

Cliccando su “Accetto”, acconsenti all'uso di cookie, identificatori di dispositivo, web beacon o altre tecnologie simili. Puoi modificare le impostazioni nel browser del tuo dispositivo.

Per determinati scopi, è possibile fare affidamento su interessi legali, piuttosto che sul consenso. Puoi approfondire questo argomento consultando la nostra Informativa sulla privacy e sui cookie.